Regional Weather Roundup
Issued by NWS Sioux Falls, SD

Home | Current Version | Previous Version | Text Only | Print | Product List | Glossary On
Versions: 1 2 3 4 5 6 7 8 9 10 11 12 13 14 15 16 17 18 19 20 21 22 23 24 25 26 27 28 29 30 31 32 33 34 35 36 37 38 39 40 41 42 43 44 45 46 47 48 49 50
000
ASUS43 KFSD 230502
RWRFSD

WEATHER ROUNDUP FOR SE SOUTH DAKOTA/SW MINNESOTA/NW IOWA
NATIONAL WEATHER SERVICE SIOUX FALLS SD
1200 AM CDT MON APR 23 2018

NOTE: "FAIR" INDICATES FEW OR NO CLOUDS BELOW 12,000 FEET WITH NO
SIGNIFICANT WEATHER AND OR OBSTRUCTIONS TO VISIBILITY.


SDZ038>040-050-052>070-230600-
SOUTHEAST SOUTH DAKOTA

CITY           SKY/WX    TMP DP  RH WIND       PRES   REMARKS
BROOKINGS      CLEAR     42  36  79 E8        30.21F
CHAMBERLAIN    CLEAR     46  40  81 SE3       30.17S
HURON          CLEAR     46  39  76 SE8       30.18F
MADISON        FAIR      41  41 100 SE5       30.21S
MITCHELL       CLEAR     46  40  79 SE6       30.19F
SIOUX FALLS    CLEAR     45  37  73 E5        30.21S
WINNER         FAIR      46  36  68 S10       30.16F
YANKTON        CLEAR     46  39  76 E6        30.20S
$$

MNZ071-072-080-081-089-090-097-098-230600-
SOUTHWEST MINNESOTA

CITY           SKY/WX    TMP DP  RH WIND       PRES   REMARKS
FAIRMONT       CLEAR     39  37  92 N5        30.23F
JACKSON        CLEAR     37  32  81 CALM      30.23F
LUVERNE        CLEAR     41  34  75 CALM      30.23S
MARSHALL       CLEAR     38  35  89 CALM      30.24F
MONTEVIDEO     CLEAR     39  36  87 CALM      30.24F
PIPESTONE      CLEAR    N/A N/A N/A SE7       30.22F
REDWOOD FALLS  CLEAR     43  40  89 CALM      30.23F
TRACY          CLEAR     38  35  89 S3        30.23F
WINDOM         CLEAR     37  25  60 CALM      30.23F
WORTHINGTON    CLEAR     39  35  86 CALM      30.24S
$$

IAZ001>003-012>014-020>022-031-032-NEZ013-014-SDZ071-230600-
NORTHWEST IOWA

CITY           SKY/WX    TMP DP  RH WIND       PRES   REMARKS
CHEROKEE       PTCLDY    44  40  86 CALM      30.21S
DENISON        CLEAR     45  28  53 CALM      30.20F
ESTHERVILLE    CLEAR     35  32  88 N7        30.22F WCI  29
LE MARS        CLEAR     41  37  87 N3        30.21S
ORANGE CITY    CLEAR     45  41  87 E6        30.21S
SHELDON        CLEAR     41  39  93 E8        30.20F
SIOUX CITY     MOCLDY    47  40  76 CALM      30.19F
SPENCER        MOCLDY    41  37  86 NE6       30.22S
STORM LAKE     CLEAR     45  41  87 NE9       30.20S
$$

ABBREVIATIONS USED IN REMARKS
   TC - TEMPERATURE IN CELSIUS
  WCI - WIND CHILL INDEX
   HX - HEAT INDEX
  VSB - VISIBILITY




USA.gov is the U.S. government's official web portal to all federal, state and local government web resources and services.